Погода в Лидсе

Великобритания     53°48′26″N   1°32′04″W
темп.,
°C
ветер,
м/с
пор.,
м/с
влажн.,
%
обл.,
%
осадки,
мм/ч
давл.,
гПа
погр.,
м
17 апреля, сб
сб1701:00+4юв12755 0.0 103170
04:00+3юв11765 0.0 103128
07:00+3в007537 0.0 103143
10:00+8вюв1156100 0.0 1031497
13:00+11вюв224454 0.0 10291316
16:00+12вюв2138100 0.0 10281549
19:00+10вюв334547 0.0 1027717
22:00+6юв276393 0.0 1028277
18 апреля, вс
вс1801:00+5юв2471100 0.0 1027154
04:00+4ююв1175100 0.0 102623
07:00+4вюв1173100 0.0 102662
10:00+8юв1257100 0.0 1025428
13:00+12юв2245100 0.0 10241159
16:00+13вюв22375 0.0 10231602
19:00+11в23414 0.0 1024677
22:00+6вюв25724 0.0 1025206
19 апреля, пн
пн1901:00+5в11785 0.0 102441
04:00+4св11835 0.0 102420
07:00+4св11846 0.0 102363
10:00+9вюв236930 0.0 1022541
13:00+12вюв3463100 0.0 10211158
16:00+11вюв3364100 0.0 1020841
19:00+10в2374100 0.1 1020220
22:00+9вюв1485100 0.1 1020169
20 апреля, вт
вт2001:00+8в1386100 0.2 1020135
04:00+8вюв1184100 0.0 101950
07:00+8ююв0082100 0.0 101930
10:00+10зюз1171100 0.0 1019145
13:00+13з2348100 0.0 10181303
16:00+13зсз4555100 0.1 10181286
19:00+11зсз486112 0.1 1018751
22:00+8ссз4882100 0.1 1020752
21 апреля, ср
ср2101:00+7с387781 0.1 1022646
04:00+5ссз26795 0.0 1022319
07:00+5ссз28755 0.0 1024475
10:00+8с46475 0.0 10251271
13:00+11с45385 0.0 10241619
16:00+12с353651 0.0 10242006
19:00+10всв445152 0.0 1025606
22:00+6ююз12605 0.0 102660